Temp
-23 -23 -23 -23 -23 -23 -23 -23 -23 -23 -23 -22 -22 -22 -22 -22 -22 -22 -22 -21 -21 -21 -21 -21 -21 -21 -21 -22 -22 -22 -21 -21 -21 -22 -22 -22 -22 -22 -22 -22 -22 -22
-24 -24 -23 -23 -23 -23 -23 -23 -23 -23 -23 -23 -23 -22 -22 -22 -22 -22 -22 -22 -22 -22 -22 -22 -22 -22 -22 -22 -22 -22 -22 -22 -22 -22 -22 -22 -22 -22 -22 -22 -22 -22
-24 -24 -24 -24 -24 -24 -24 -24 -24 -23 -23 -23 -23 -23 -23 -23 -23 -22 -22 -22 -22 -22 -22 -22 -22 -22 -22 -22 -22 -22 -22 -22 -22 -22 -23 -23 -23 -23 -23 -23 -23 -23
-25 -24 -24 -24 -24 -24 -24 -24 -24 -24 -24 -24 -24 -24 -24 -23 -23 -23 -23 -23 -23 -23 -23 -23 -23 -23 -23 -23 -23 -23 -23 -23 -23 -23 -23 -24 -24 -24 -24 -24 -24 -24
-25 -25 -25 -25 -25 -25 -24 -24 -24 -24 -24 -24 -24 -24 -24 -24 -24 -24 -24 -24 -24 -24 -24 -24 -24 -24 -24 -24 -24 -24 -24 -24 -24 -24 -24 -24 -24 -24 -24 -24 -24 -24
-26 -26 -25 -25 -25 -25 -25 -25 -25 -25 -25 -25 -25 -25 -24 -24 -24 -24 -24 -24 -24 -24 -24 -24 -24 -24 -24 -24 -25 -25 -25 -25 -25 -25 -25 -25 -25 -25 -25 -25 -25 -25
-26 -26 -26 -26 -26 -26 -26 -26 -25 -25 -25 -25 -25 -25 -25 -25 -25 -25 -25 -25 -25 -25 -25 -25 -25 -25 -25 -25 -25 -25 -25 -25 -25 -25 -25 -25 -25 -25 -25 -25 -25 -25
-26 -26 -26 -26 -26 -26 -26 -26 -26 -26 -26 -26 -26 -26 -26 -26 -26 -26 -25 -25 -25 -25 -25 -25 -25 -25 -25 -25 -25 -25 -25 -25 -25 -25 -25 -25 -25 -25 -25 -25 -25 -25
-26 -26 -26 -26 -26 -26 -26 -26 -26 -26 -26 -26 -26 -26 -26 -26 -26 -26 -26 -26 -26 -26 -26 -26 -26 -26 -26 -26 -26 -26 -26 -26 -26 -26 -26 -26 -26 -26 -26 -25 -25 -25
-27 -27 -26 -26 -26 -26 -26 -26 -26 -26 -26 -26 -26 -26 -26 -26 -26 -26 -26 -26 -26 -26 -26 -26 -26 -26 -26 -26 -26 -26 -26 -26 -26 -26 -26 -26 -26 -26 -26 -26 -26 -26
-27 -27 -27 -27 -27 -27 -27 -27 -27 -27 -27 -26 -26 -26 -26 -26 -26 -26 -26 -26 -26 -26 -26 -26 -26 -26 -26 -26 -26 -26 -26 -26 -26 -26 -26 -26 -26 -26 -26 -26 -26 -26
-27 -27 -27 -27 -27 -27 -27 -27 -27 -27 -27 -27 -27 -27 -27 -27 -27 -27 -27 -27 -27 -27 -27 -26 -26 -26 -26 -26 -26 -26 -26 -26 -26 -26 -26 -26 -26 -26 -26 -26 -26 -26
-27 -27 -27 -27 -27 -27 -27 -27 -27 -27 -27 -27 -27 -27 -27 -27 -27 -27 -27 -27 -27 -27 -27 -27 -27 -27 -27 -27 -27 -27 -27 -27 -27 -27 -27 -27 -27 -27 -27 -26 -26 -26
-28 -28 -28 -28 -28 -28 -28 -28 -28 -28 -28 -28 -28 -27 -27 -27 -27 -27 -27 -27 -27 -28 -28 -28 -28 -28 -27 -27 -27 -27 -27 -27 -27 -27 -27 -27 -27 -27 -27 -27 -27 -27
-28 -28 -28 -28 -28 -28 -28 -28 -28 -28 -28 -28 -28 -28 -28 -28 -28 -28 -28 -28 -28 -28 -28 -28 -28 -28 -28 -28 -28 -28 -28 -28 -28 -28 -28 -28 -28 -28 -28 -28 -28 -28
-28 -28 -28 -28 -28 -28 -28 -28 -28 -28 -28 -28 -28 -28 -28 -28 -28 -28 -28 -28 -28 -28 -28 -28 -28 -28 -28 -28 -28 -28 -28 -28 -28 -28 -28 -28 -28 -28 -28 -28 -28 -28
-28 -28 -28 -28 -28 -28 -28 -29 -29 -29 -29 -29 -29 -29 -29 -29 -29 -29 -28 -29 -29 -29 -29 -29 -29 -28 -28 -28 -28 -28 -28 -28 -28 -28 -28 -28 -28 -28 -28 -28 -28 -28
-29 -29 -29 -29 -29 -29 -29 -29 -29 -29 -29 -29 -29 -29 -29 -29 -29 -29 -29 -29 -29 -29 -29 -29 -29 -29 -29 -29 -29 -29 -29 -29 -29 -29 -29 -29 -29 -29 -29 -29 -29 -29
-29 -29 -29 -29 -29 -29 -29 -29 -29 -29 -29 -29 -29 -29 -29 -29 -29 -29 -29 -29 -29 -29 -29 -29 -29 -29 -29 -29 -29 -29 -29 -29 -29 -29 -29 -29 -29 -29 -29 -29 -29 -29
-29 -29 -29 -29 -29 -29 -29 -29 -29 -29 -29 -30 -30 -30 -30 -30 -30 -30 -30 -30 -30 -30 -30 -30 -30 -30 -30 -30 -30 -30 -30 -30 -30 -29 -30 -30 -30 -30 -30 -30 -30 -30
-30 -30 -30 -30 -30 -30 -30 -30 -30 -30 -30 -30 -30 -30 -30 -30 -30 -30 -30 -30 -30 -30 -30 -30 -30 -30 -30 -30 -30 -30 -30 -30 -30 -30 -30 -30 -30 -30 -30 -30 -30 -30
-30 -30 -30 -30 -30 -30 -30 -30 -30 -30 -30 -30 -30 -30 -30 -30 -30 -30 -30 -30 -31 -31 -31 -31 -31 -31 -31 -31 -31 -31 -31 -31 -31 -31 -31 -31 -31 -31 -31 -31 -31 -31
-31 -30 -30 -30 -31 -31 -31 -31 -31 -31 -31 -31 -31 -31 -31 -31 -31 -31 -31 -31 -31 -31 -31 -31 -31 -31 -31 -31 -31 -31 -31 -31 -31 -31 -31 -31 -31 -31 -31 -31 -31 -31
-31 -31 -31 -31 -31 -31 -31 -31 -31 -31 -31 -31 -31 -31 -31 -32 -32 -32 -32 -32 -32 -32 -32 -32 -32 -32 -32 -32 -32 -32 -32 -32 -32 -32 -32 -32 -32 -32 -31 -31 -31 -31
-32 -32 -32 -32 -32 -32 -32 -32 -32 -32 -32 -32 -32 -32 -32 -32 -32 -32 -32 -32 -32 -32 -32 -32 -33 -33 -33 -33 -33 -33 -33 -33 -33 -33 -32 -32 -32 -32 -32 -32 -32 -32
-33 -33 -33 -33 -33 -33 -33 -33 -33 -33 -33 -33 -33 -33 -33 -33 -33 -33 -33 -33 -33 -33 -33 -33 -33 -33 -33 -33 -33 -33 -33 -33 -33 -33 -33 -33 -33 -33 -33 -33 -33 -33
Height
5542 5542 5544 5545 5545 5546 5547 5548 5549 5551 5553 5555 5556 5557 5558 5559 5561 5562 5563 5563 5563 5563 5563 5563 5564 5565 5565 5566 5566 5566 5567 5567 5568 5568 5569 5570 5570 5571 5572 5573 5572 5574
5535 5536 5536 5537 5538 5539 5540 5541 5541 5543 5544 5546 5547 5548 5549 5550 5551 5552 5552 5553 5553 5553 5553 5554 5555 5555 5556 5556 5556 5556 5557 5558 5558 5559 5560 5561 5561 5562 5564 5564 5564 5565
5529 5529 5530 5531 5531 5532 5533 5533 5534 5535 5536 5537 5539 5539 5540 5541 5542 5542 5542 5543 5543 5543 5544 5544 5545 5546 5546 5547 5547 5547 5548 5549 5550 5551 5552 5553 5553 5554 5555 5556 5557 5557
5522 5522 5523 5524 5524 5525 5526 5526 5527 5527 5528 5529 5530 5531 5532 5532 5533 5534 5534 5535 5535 5536 5536 5536 5536 5537 5538 5539 5539 5540 5540 5541 5542 5543 5544 5545 5545 5546 5547 5547 5548 5549
5515 5515 5516 5516 5517 5518 5518 5519 5519 5520 5520 5521 5522 5523 5523 5524 5524 5525 5525 5526 5527 5528 5528 5528 5528 5529 5529 5530 5530 5531 5532 5532 5533 5534 5535 5536 5536 5537 5538 5538 5539 5539
5508 5509 5509 5509 5510 5510 5511 5511 5511 5512 5513 5513 5514 5514 5515 5515 5516 5516 5516 5517 5517 5518 5519 5519 5519 5520 5520 5521 5521 5522 5523 5523 5524 5525 5526 5527 5527 5528 5529 5529 5530 5530
5502 5502 5502 5502 5503 5503 5503 5504 5504 5504 5505 5505 5506 5506 5506 5507 5507 5507 5508 5508 5508 5509 5510 5510 5510 5511 5511 5512 5513 5513 5514 5515 5515 5516 5517 5517 5518 5519 5519 5520 5520 5521
5495 5495 5495 5496 5496 5496 5496 5496 5497 5497 5497 5497 5498 5498 5498 5498 5499 5499 5499 5499 5500 5500 5500 5501 5501 5501 5502 5502 5503 5504 5505 5505 5506 5506 5507 5507 5508 5509 5509 5510 5511 5512
5488 5488 5488 5489 5489 5489 5489 5489 5489 5489 5489 5489 5490 5490 5490 5490 5490 5491 5491 5491 5491 5491 5491 5492 5492 5492 5493 5493 5494 5494 5495 5495 5496 5496 5497 5497 5498 5499 5499 5500 5501 5502
5481 5481 5481 5481 5481 5481 5481 5481 5481 5481 5481 5481 5481 5481 5482 5482 5482 5482 5482 5482 5482 5482 5483 5483 5483 5483 5484 5484 5484 5485 5485 5485 5485 5486 5487 5488 5488 5489 5490 5490 5491 5492
5474 5474 5474 5474 5474 5473 5473 5473 5473 5473 5473 5473 5472 5472 5473 5473 5473 5473 5473 5473 5473 5473 5473 5473 5474 5474 5474 5474 5475 5475 5475 5475 5476 5476 5477 5477 5478 5479 5480 5480 5481 5482
5467 5467 5466 5466 5466 5466 5465 5465 5465 5465 5465 5464 5464 5464 5464 5463 5463 5463 5463 5463 5463 5463 5463 5463 5464 5464 5464 5464 5465 5465 5466 5466 5466 5467 5467 5468 5468 5469 5470 5470 5471 5471
5460 5459 5459 5458 5458 5457 5457 5457 5457 5456 5456 5456 5456 5455 5455 5455 5454 5454 5454 5453 5453 5453 5453 5453 5453 5454 5454 5454 5454 5455 5455 5455 5456 5457 5457 5458 5458 5459 5459 5460 5460 5460
5452 5451 5451 5450 5450 5449 5449 5448 5448 5448 5447 5447 5447 5446 5446 5446 5445 5445 5444 5444 5444 5443 5443 5443 5443 5443 5443 5443 5444 5444 5445 5445 5445 5446 5447 5447 5448 5448 5449 5449 5449 5450
5443 5443 5442 5442 5441 5441 5440 5439 5439 5438 5438 5438 5437 5437 5437 5436 5436 5435 5435 5434 5434 5433 5433 5433 5433 5433 5433 5433 5433 5434 5434 5434 5435 5436 5437 5437 5437 5437 5437 5438 5439 5439
5434 5434 5433 5432 5432 5431 5431 5430 5429 5429 5429 5428 5428 5427 5427 5426 5426 5425 5425 5425 5424 5423 5423 5423 5422 5422 5422 5422 5422 5423 5423 5424 5424 5425 5426 5426 5426 5426 5426 5427 5428 5429
5424 5423 5423 5422 5422 5421 5421 5420 5419 5419 5418 5418 5417 5417 5416 5416 5415 5414 5414 5414 5414 5413 5412 5412 5411 5411 5411 5411 5411 5411 5412 5413 5414 5414 5415 5414 5415 5415 5416 5417 5417 5418
5413 5413 5412 5411 5411 5411 5410 5409 5408 5408 5407 5407 5406 5406 5405 5405 5404 5403 5403 5403 5403 5402 5401 5401 5400 5399 5399 5399 5399 5399 5400 5401 5402 5403 5403 5403 5403 5403 5404 5405 5406 5406
5403 5402 5401 5400 5400 5400 5399 5398 5397 5396 5396 5395 5394 5394 5394 5393 5392 5391 5391 5391 5391 5391 5390 5389 5388 5387 5387 5387 5386 5387 5387 5388 5390 5392 5392 5392 5391 5391 5392 5393 5393 5394
5391 5391 5390 5389 5389 5388 5387 5386 5385 5384 5384 5383 5382 5382 5382 5381 5380 5379 5379 5379 5379 5378 5378 5377 5376 5374 5374 5374 5373 5374 5374 5375 5377 5379 5380 5380 5379 5379 5379 5380 5381 5382
5379 5378 5378 5377 5376 5375 5375 5374 5372 5372 5371 5370 5369 5369 5369 5368 5367 5367 5366 5366 5366 5365 5365 5364 5363 5361 5361 5360 5360 5360 5360 5361 5364 5365 5366 5367 5367 5366 5366 5367 5368 5369
5367 5366 5365 5364 5363 5362 5362 5361 5359 5359 5358 5357 5356 5355 5355 5354 5354 5353 5353 5353 5352 5352 5351 5351 5350 5348 5346 5346 5346 5345 5346 5347 5350 5351 5352 5352 5353 5353 5353 5354 5355 5356
5354 5353 5352 5351 5350 5349 5348 5347 5346 5345 5344 5343 5342 5341 5341 5340 5339 5339 5338 5338 5338 5337 5336 5336 5336 5334 5332 5332 5331 5330 5331 5332 5334 5336 5337 5337 5338 5339 5339 5340 5341 5342
5340 5339 5338 5338 5336 5335 5334 5333 5332 5330 5329 5328 5327 5327 5326 5325 5324 5324 5323 5322 5322 5321 5320 5321 5321 5319 5318 5317 5316 5315 5315 5317 5319 5320 5321 5322 5323 5323 5324 5326 5326 5327
5324 5323 5323 5322 5321 5320 5319 5318 5317 5316 5314 5313 5312 5311 5310 5310 5309 5308 5308 5307 5306 5305 5304 5304 5304 5304 5302 5301 5300 5299 5299 5300 5302 5304 5305 5306 5307 5308 5309 5310 5311 5311
5310 5308 5307 5306 5305 5304 5303 5302 5300 5299 5298 5297 5296 5295 5294 5293 5292 5292 5292 5291 5290 5289 5288 5287 5287 5287 5286 5285 5284 5283 5282 5283 5285 5287 5289 5289 5290 5292 5293 5294 5295 5296
Wind_Speed
55 55 55 55 55 56 56 57 58 59 61 64 65 65 66 67 69 70 71 72 73 74 74 74 74 74 72 71 70 71 73 76 77 78 79 80 81 81 79 77 75 74
53 54 55 55 55 56 56 57 58 58 60 62 64 67 69 70 71 73 74 75 75 75 75 75 76 77 76 75 74 74 76 78 79 80 80 80 80 79 77 75 73 72
52 53 54 55 55 56 56 57 57 58 59 60 61 63 66 69 71 73 75 76 77 78 77 76 76 77 77 77 78 79 79 80 79 79 77 76 74 73 71 71 69 68
50 51 52 53 54 55 56 56 57 58 59 60 61 61 63 64 66 68 70 72 73 74 74 74 74 74 74 74 75 75 75 74 73 71 70 69 68 68 67 67 67 67
46 47 48 50 51 52 53 54 55 56 57 58 60 61 62 63 64 65 66 67 68 68 69 69 70 70 70 69 69 68 67 67 66 66 66 66 66 66 67 68 68 68
44 45 46 47 48 49 50 51 52 53 54 55 56 57 58 60 61 62 63 63 64 65 65 66 66 66 66 66 65 65 65 65 65 66 66 66 67 67 68 68 68 68
47 47 47 47 48 48 49 49 51 52 52 53 54 55 56 56 57 58 59 59 60 61 61 62 62 63 63 63 64 64 64 65 65 65 65 66 66 66 66 66 67 67
50 50 51 52 52 52 51 51 52 52 53 53 54 55 56 57 58 59 60 60 61 62 62 63 63 64 65 65 65 65 66 66 66 66 66 66 65 65 65 65 65 66
49 50 51 52 53 54 55 56 56 56 56 56 56 56 57 58 59 60 61 62 64 65 65 66 67 67 67 68 68 68 68 68 68 68 67 67 66 66 66 67 67 66
46 48 49 50 51 53 54 56 57 59 60 60 61 61 61 61 61 62 62 63 64 65 66 67 68 68 68 68 68 68 68 69 69 69 69 68 68 68 68 68 68 67
46 47 48 49 50 51 52 53 55 56 58 60 61 63 64 65 65 65 66 66 66 67 67 68 68 69 69 69 69 69 69 70 70 70 70 70 70 70 70 69 69 69
48 48 49 50 50 51 52 53 54 55 56 57 59 60 62 63 64 65 66 67 68 68 69 70 70 71 72 72 72 73 73 73 73 72 72 72 72 71 71 71 71 71
51 51 52 52 53 53 54 54 55 56 56 57 58 59 60 61 62 63 64 64 65 66 67 68 69 70 71 72 73 74 75 75 75 75 74 74 73 73 73 73 73 73
55 55 55 56 56 56 57 57 57 58 58 59 59 60 61 62 62 63 64 64 65 65 66 66 67 67 68 69 70 71 72 73 74 74 75 75 74 74 74 74 74 74
59 59 59 59 60 60 61 61 61 61 62 62 63 63 63 64 64 64 65 66 66 67 67 67 67 68 68 68 68 69 69 70 70 71 72 72 73 74 74 74 74 75
63 63 63 63 63 64 64 64 65 65 65 66 66 67 67 67 67 67 67 68 68 68 69 69 69 70 70 70 70 70 70 70 70 70 71 71 71 72 73 73 74 74
66 66 66 66 67 67 68 68 69 69 69 70 70 70 70 71 71 71 71 71 71 71 71 72 72 72 72 73 73 73 73 72 72 72 72 72 73 73 73 73 73 74
69 69 69 70 70 70 71 72 72 73 73 73 74 74 74 74 74 75 75 75 75 75 75 75 75 76 76 76 76 76 76 75 74 74 74 75 75 75 75 75 75 75
71 72 73 73 73 74 75 75 76 76 76 77 77 77 77 77 78 78 78 78 78 78 78 79 79 79 79 80 79 79 79 78 78 77 77 77 77 78 78 78 78 78
74 75 76 76 77 77 78 78 79 79 79 79 80 80 80 80 81 81 81 81 82 82 82 82 83 83 83 83 83 83 83 82 81 80 80 80 80 80 80 81 81 81
78 78 79 79 80 80 81 81 82 82 82 82 83 83 83 83 84 84 84 84 85 85 85 85 86 86 86 86 86 86 86 86 85 84 84 84 84 84 84 84 84 84
81 82 82 82 83 83 83 84 84 84 85 85 85 86 86 86 87 87 87 88 88 88 88 88 89 89 90 90 90 90 90 90 89 89 89 88 88 88 88 88 87 87
83 84 84 85 85 86 86 87 87 88 88 89 89 90 90 90 91 91 91 92 92 92 92 92 92 93 93 93 94 94 94 94 93 93 93 93 93 92 92 92 91 91
85 86 86 87 88 88 89 90 90 91 92 93 93 94 94 95 95 95 95 95 95 96 96 96 96 96 96 96 97 97 97 97 97 96 96 96 96 96 96 95 95 95
87 88 88 89 90 90 91 92 93 93 94 95 96 96 97 97 98 98 98 99 99 99 99 99 99 99 100 100 99 100 100 100 99 99 98 98 98 98 98 98 98 98
89 90 90 90 91 91 92 93 93 94 95 95 96 97 98 98 99 99 100 100 101 101 101 101 102 101 101 101 101 101 101 101 101 100 100 100 100 99 99 99 99 99
Wind_Direction
252 251 251 251 251 251 251 251 250 248 246 245 245 245 245 244 245 246 246 247 247 248 249 250 251 252 253 254 254 255 255 257 258 260 261 262 264 265 265 264 263 262
253 253 253 252 252 252 252 251 251 251 249 247 246 246 246 246 246 247 248 249 249 250 252 253 253 254 256 257 258 259 260 260 261 262 262 263 263 263 263 263 262 263
255 255 255 255 254 254 254 253 253 252 251 251 250 249 248 248 249 249 250 252 253 255 257 258 258 258 259 260 261 262 263 263 263 263 263 263 263 263 263 263 263 263
258 257 257 257 256 256 256 256 255 255 254 254 253 252 252 251 251 251 252 253 254 256 258 259 260 261 261 262 262 263 263 263 263 262 262 261 261 261 261 261 261 261
261 260 259 259 258 258 258 257 257 257 257 257 256 256 255 255 254 254 254 255 255 255 256 257 258 259 259 260 260 260 260 260 260 259 259 259 259 260 260 260 260 260
259 260 260 260 260 259 259 259 259 259 258 258 258 258 258 257 257 257 257 257 257 257 258 258 258 259 259 259 259 259 259 259 259 259 259 260 260 261 261 261 261 261
257 256 256 257 257 257 258 258 258 258 258 258 258 258 259 259 259 259 259 259 259 259 259 260 260 260 260 260 260 261 261 261 262 262 262 262 263 263 263 263 263 263
260 259 258 257 257 256 256 256 257 257 257 257 257 258 258 259 259 259 260 260 259 259 259 259 260 260 260 261 261 261 261 262 263 263 263 263 264 264 264 264 264 264
265 264 263 262 261 260 259 258 258 258 258 258 257 257 257 258 258 258 259 259 260 260 260 260 260 260 261 261 261 262 262 262 263 263 263 263 264 264 264 265 265 264
268 267 266 266 265 264 264 263 262 262 261 261 261 260 260 259 259 258 258 258 259 259 259 260 260 260 261 261 261 262 262 263 263 263 263 263 264 264 264 264 264 263
270 269 268 268 267 266 266 265 265 264 264 264 263 263 263 263 262 262 261 261 260 260 259 259 260 260 260 260 261 261 262 262 262 263 263 263 263 263 263 262 262 262
270 270 269 269 268 268 267 266 266 265 265 265 265 265 265 265 265 265 264 264 264 263 263 262 262 262 261 261 262 262 262 262 262 262 262 262 262 262 262 262 262 261
270 270 270 269 269 269 268 267 267 266 266 266 265 265 265 266 266 266 266 266 266 266 265 265 264 264 264 263 263 263 263 263 263 263 263 263 262 262 262 262 262 262
271 270 270 269 269 269 269 268 268 268 267 267 266 266 266 266 266 266 266 266 267 267 267 267 267 266 266 266 265 264 264 264 264 263 263 263 263 263 262 262 262 262
271 271 270 270 269 269 269 269 269 269 269 268 268 267 267 266 266 266 266 266 266 267 267 267 267 267 267 267 267 267 266 266 265 265 265 265 264 264 264 263 263 262
272 271 271 270 270 270 270 270 270 270 270 270 269 269 268 268 267 267 267 267 267 267 267 267 267 267 267 267 267 267 267 267 267 267 267 266 266 265 265 264 264 263
273 272 271 271 271 271 271 271 271 271 271 271 270 270 269 269 268 268 268 268 268 268 268 268 268 268 268 268 268 267 267 267 267 267 267 267 267 266 266 265 265 264
273 272 272 272 272 272 272 272 272 272 272 272 271 270 270 269 269 268 268 268 268 268 268 269 269 269 268 268 268 268 267 267 267 267 267 267 267 267 267 266 266 265
273 272 272 272 272 272 272 272 272 272 272 272 271 271 270 270 269 269 269 268 268 268 268 269 269 269 269 268 268 268 268 267 267 267 267 267 267 267 267 267 266 266
273 273 273 273 273 273 272 272 272 272 271 271 271 270 270 270 269 269 269 269 269 269 269 269 269 269 268 268 268 268 267 267 267 267 267 267 267 267 267 266 266 266
274 273 273 273 273 272 272 272 272 272 271 271 271 270 270 269 269 269 269 269 269 269 268 268 268 268 268 268 268 267 267 267 267 267 266 266 266 266 266 266 265 265
273 273 273 273 273 273 272 272 272 271 271 271 270 270 270 269 269 269 269 268 268 268 268 268 268 268 268 268 267 267 267 267 266 266 266 265 265 265 265 265 265 264
273 273 273 272 272 272 272 271 271 271 270 270 270 269 269 269 269 269 269 268 268 268 268 267 267 267 267 267 267 267 267 267 266 266 266 265 265 264 264 264 264 264
274 273 273 272 272 271 271 271 270 270 270 270 269 269 269 269 269 269 269 268 268 268 268 268 267 267 267 267 267 267 267 266 266 266 265 265 265 264 264 264 264 263
275 274 274 273 273 272 272 271 271 270 270 270 269 269 269 269 268 268 268 268 268 268 268 268 268 267 267 267 267 267 267 266 266 266 265 265 265 264 264 264 264 263
276 275 275 274 274 273 273 272 272 271 271 270 270 269 269 269 269 268 268 268 268 268 268 268 268 268 268 267 267 267 267 266 266 266 265 265 264 264 264 264 263 263